Location: Austin
(30.3000°N, 97.7500°W)
Time: 02:23:03
(UTC-06:00)

Cosmos 1825 Rocket - Pass Details

Date: 20 November 2023
Orbit: 601 x 629 km, 82.5° (Epoch: 04 December)

Event Time Altitude Azimuth Distance (km) Brightness Sun altitude
Rises 19:10:02 0° 347° (NNW) 2,856 7.0 -21.0°
Reaches altitude 10° 19:12:17 10° 342° (NNW) 1,947 6.2 -21.5°
Maximum altitude 19:16:27 50° 267° (W) 765 4.3 -22.4°
Drops below altitude 10° 19:20:35 10° 192° (SSW) 1,933 6.3 -23.2°
Sets 19:22:49 0° 187° (S) 2,833 7.2 -23.7°
